| time (UTC) | temp F | wind direction | speed MPH | gust MPH | rain 1hr in | rain 24hr in | rain mn in | humidity % | barometer mb |
| 20260905112924 | 58 | 141 | 2.0 | 4.0 | 0.00 | 0.00 | 0.00 | 85 | 1014.3 |
| 20260905112431 | 58 | 155 | 2.0 | 3.0 | 0.00 | 0.00 | 0.00 | 85 | 1014.3 |
| 20260905111917 | 59 | 130 | 2.0 | 3.0 | 0.00 | 0.00 | 0.00 | 85 | 1014.4 |
| 20260905111425 | 59 | 45 | 1.0 | 3.0 | 0.00 | 0.00 | 0.00 | 85 | 1014.4 |
| 20260905110947 | 59 | 88 | 1.0 | 5.0 | 0.00 | 0.00 | 0.00 | 85 | 1014.4 |
| 20260905110434 | 59 | 218 | 1.0 | 5.0 | 0.00 | 0.00 | 0.00 | 85 | 1014.3 |
| 20260905105917 | 59 | 228 | 2.0 | 7.0 | 0.00 | 0.00 | 0.00 | 85 | 1014.3 |
| 20260905105423 | 59 | 247 | 4.0 | 7.0 | 0.00 | 0.00 | 0.00 | 85 | 1014.4 |
| 20260905104929 | 59 | 254 | 3.0 | 7.0 | 0.00 | 0.00 | 0.00 | 85 | 1014.3 |
| 20260905104418 | 59 | 258 | 2.0 | 3.0 | 0.00 | 0.00 | 0.00 | 85 | 1014.3 |
| 20260905103924 | 59 | 151 | 1.0 | 4.0 | 0.00 | 0.00 | 0.00 | 85 | 1014.3 |
| 20260905103428 | 59 | 116 | 3.0 | 4.0 | 0.00 | 0.00 | 0.00 | 85 | 1014.3 |
| 20260905102934 | 59 | 151 | 1.0 | 4.0 | 0.00 | 0.00 | 0.00 | 84 | 1014.3 |
| 20260905102419 | 59 | 339 | 2.0 | 4.0 | 0.00 | 0.00 | 0.00 | 84 | 1014.3 |
| 20260905101927 | 59 | 45 | 1.0 | 5.0 | 0.00 | 0.00 | 0.00 | 85 | 1014.4 |
| 20260905101432 | 59 | 285 | 2.0 | 8.0 | 0.00 | 0.00 | 0.00 | 85 | 1014.4 |
| 20260905100941 | 59 | 282 | 3.0 | 8.0 | 0.00 | 0.00 | 0.00 | 85 | 1014.4 |
| 20260905100458 | 60 | 214 | 2.0 | 9.0 | 0.00 | 0.00 | 0.00 | 84 | 1014.3 |
| 20260905095926 | 60 | 257 | 4.0 | 10.0 | 0.00 | 0.00 | 0.00 | 84 | 1014.3 |
| 20260905095431 | 60 | 273 | 5.0 | 10.0 | 0.00 | 0.00 | 0.00 | 84 | 1014.3 |
| 20260905094921 | 60 | 251 | 5.0 | 9.0 | 0.00 | 0.00 | 0.00 | 84 | 1014.3 |
| 20260905094427 | 60 | 282 | 5.0 | 9.0 | 0.00 | 0.00 | 0.00 | 84 | 1014.3 |
| 20260905093935 | 60 | 268 | 5.0 | 12.0 | 0.00 | 0.00 | 0.00 | 84 | 1014.2 |
| 20260905093421 | 60 | 258 | 6.0 | 12.0 | 0.00 | 0.00 | 0.00 | 84 | 1014.2 |
| 20260905092927 | 60 | 301 | 5.0 | 10.0 | 0.00 | 0.00 | 0.00 | 84 | 1014.3 |
| 20260905092435 | 60 | 261 | 4.0 | 9.0 | 0.00 | 0.00 | 0.00 | 84 | 1014.3 |
| 20260905091937 | 60 | 237 | 4.0 | 10.0 | 0.00 | 0.00 | 0.00 | 84 | 1014.4 |
| 20260905091424 | 60 | 232 | 6.0 | 12.0 | 0.00 | 0.00 | 0.00 | 85 | 1014.4 |
| 20260905090931 | 60 | 273 | 6.0 | 14.0 | 0.00 | 0.00 | 0.00 | 85 | 1014.4 |
| 20260905090418 | 60 | 256 | 8.0 | 14.0 | 0.00 | 0.00 | 0.00 | 85 | 1014.5 |
| 20260905085922 | 60 | 292 | 8.0 | 14.0 | 0.00 | 0.00 | 0.00 | 86 | 1014.4 |
| 20260905085431 | 60 | 271 | 8.0 | 14.0 | 0.00 | 0.00 | 0.00 | 86 | 1014.5 |
| 20260905084939 | 60 | 217 | 8.0 | 14.0 | 0.00 | 0.00 | 0.00 | 86 | 1014.5 |
| 20260905084450 | 60 | 282 | 8.0 | 15.0 | 0.00 | 0.00 | 0.00 | 86 | 1014.5 |
| 20260905083918 | 60 | 292 | 8.0 | 15.0 | 0.00 | 0.00 | 0.00 | 85 | 1014.5 |
| 20260905083446 | 60 | 268 | 8.0 | 15.0 | 0.00 | 0.00 | 0.00 | 85 | 1014.6 |
| 20260905082931 | 60 | 270 | 9.0 | 15.0 | 0.00 | 0.00 | 0.00 | 85 | 1014.5 |
| 20260905082438 | 60 | 289 | 9.0 | 16.0 | 0.00 | 0.00 | 0.00 | 85 | 1014.6 |
| 20260905081953 | 60 | 280 | 9.0 | 16.0 | 0.00 | 0.00 | 0.00 | 85 | 1014.6 |
| 20260905081417 | 60 | 268 | 9.0 | 17.0 | 0.00 | 0.00 | 0.00 | 85 | 1014.5 |
| 20260905080921 | 60 | 292 | 10.0 | 17.0 | 0.00 | 0.00 | 0.00 | 85 | 1014.4 |
| 20260905080427 | 60 | 218 | 8.0 | 16.0 | 0.00 | 0.00 | 0.00 | 85 | 1014.5 |
| 20260905075930 | 60 | 252 | 10.0 | 16.0 | 0.00 | 0.00 | 0.00 | 85 | 1014.4 |
| 20260905075418 | 60 | 238 | 9.0 | 15.0 | 0.00 | 0.00 | 0.00 | 84 | 1014.4 |
| 20260905074926 | 60 | 294 | 9.0 | 15.0 | 0.00 | 0.00 | 0.00 | 84 | 1014.5 |
| 20260905074431 | 60 | 254 | 7.0 | 15.0 | 0.00 | 0.00 | 0.00 | 83 | 1014.4 |
| 20260905073937 | 60 | 256 | 7.0 | 14.0 | 0.00 | 0.00 | 0.00 | 83 | 1014.3 |
| 20260905073428 | 60 | 237 | 7.0 | 14.0 | 0.00 | 0.00 | 0.00 | 82 | 1014.3 |
| 20260905072931 | 60 | 268 | 6.0 | 10.0 | 0.00 | 0.00 | 0.00 | 82 | 1014.2 |
| 20260905072435 | 60 | 268 | 5.0 | 10.0 | 0.00 | 0.00 | 0.00 | 81 | 1014.3 |
| 20260905071924 | 60 | 279 | 6.0 | 11.0 | 0.00 | 0.00 | 0.00 | 81 | 1014.3 |
| 20260905071429 | 61 | 275 | 6.0 | 11.0 | 0.00 | 0.00 | 0.00 | 80 | 1014.3 |
| 20260905070936 | 61 | 256 | 5.0 | 13.0 | 0.00 | 0.00 | 0.00 | 80 | 1014.3 |
| 20260905070449 | 61 | 247 | 7.0 | 13.0 | 0.00 | 0.00 | 0.00 | 80 | 1014.2 |
| 20260905065945 | 61 | 278 | 8.0 | 15.0 | 0.00 | 0.00 | 0.00 | 80 | 1014.2 |
| 20260905065434 | 61 | 249 | 8.0 | 15.0 | 0.00 | 0.00 | 0.00 | 79 | 1014.2 |
| 20260905064950 | 61 | 270 | 8.0 | 13.0 | 0.00 | 0.00 | 0.00 | 79 | 1014.2 |
| 20260905064417 | 61 | 252 | 7.0 | 12.0 | 0.00 | 0.00 | 0.00 | 78 | 1014.3 |
| 20260905063943 | 61 | 289 | 7.0 | 14.0 | 0.00 | 0.00 | 0.00 | 78 | 1014.3 |
| 20260905063429 | 61 | 287 | 7.0 | 15.0 | 0.00 | 0.00 | 0.00 | 78 | 1014.3 |
| 20260905062916 | 61 | 268 | 7.0 | 16.0 | 0.00 | 0.00 | 0.00 | 78 | 1014.3 |
| 20260905062420 | 61 | 280 | 11.0 | 18.0 | 0.00 | 0.00 | 0.00 | 78 | 1014.3 |
| 20260905061958 | 61 | 278 | 10.0 | 18.0 | 0.00 | 0.00 | 0.00 | 78 | 1014.2 |
| 20260905061453 | 61 | 271 | 8.0 | 13.0 | 0.00 | 0.00 | 0.00 | 78 | 1014.3 |
| 20260905060920 | 61 | 281 | 7.0 | 14.0 | 0.00 | 0.00 | 0.00 | 78 | 1014.2 |
| 20260905060428 | 61 | 276 | 8.0 | 14.0 | 0.00 | 0.00 | 0.00 | 79 | 1014.3 |
| 20260905055933 | 61 | 277 | 8.0 | 13.0 | 0.00 | 0.00 | 0.00 | 79 | 1014.3 |
| 20260905055421 | 61 | 280 | 6.0 | 13.0 | 0.00 | 0.00 | 0.00 | 79 | 1014.4 |
| 20260905054922 | 61 | 261 | 8.0 | 16.0 | 0.00 | 0.00 | 0.00 | 79 | 1014.4 |
| 20260905054428 | 61 | 261 | 9.0 | 16.0 | 0.00 | 0.00 | 0.00 | 79 | 1014.4 |
| 20260905053932 | 61 | 263 | 6.0 | 14.0 | 0.00 | 0.00 | 0.00 | 79 | 1014.5 |
| 20260905053422 | 61 | 251 | 9.0 | 14.0 | 0.00 | 0.00 | 0.00 | 79 | 1014.5 |
| 20260905052929 | 61 | 268 | 7.0 | 13.0 | 0.00 | 0.00 | 0.00 | 79 | 1014.6 |
| 20260905052417 | 61 | 229 | 9.0 | 13.0 | 0.00 | 0.00 | 0.00 | 79 | 1014.6 |
| 20260905051922 | 61 | 257 | 7.0 | 14.0 | 0.00 | 0.00 | 0.00 | 79 | 1014.7 |
| 20260905051423 | 61 | 292 | 6.0 | 14.0 | 0.00 | 0.00 | 0.00 | 78 | 1014.7 |
| 20260905050931 | 61 | 279 | 7.0 | 14.0 | 0.00 | 0.00 | 0.00 | 78 | 1014.8 |
| 20260905050437 | 61 | 282 | 6.0 | 12.0 | 0.00 | 0.00 | 0.00 | 77 | 1014.8 |
| 20260905045954 | 61 | 250 | 6.0 | 13.0 | 0.00 | 0.01 | 0.00 | 76 | 1014.8 |
| 20260905045422 | 61 | 242 | 7.0 | 13.0 | 0.00 | 0.01 | 0.00 | 75 | 1014.7 |
| 20260905044957 | 61 | 277 | 7.0 | 13.0 | 0.00 | 0.01 | 0.00 | 75 | 1014.8 |
| 20260905044422 | 62 | 275 | 7.0 | 14.0 | 0.00 | 0.01 | 0.00 | 74 | 1014.7 |
| 20260905043925 | 62 | 284 | 9.0 | 14.0 | 0.00 | 0.01 | 0.00 | 74 | 1014.7 |
| 20260905043434 | 62 | 270 | 9.0 | 17.0 | 0.00 | 0.01 | 0.00 | 73 | 1014.6 |
| 20260905042918 | 62 | 256 | 10.0 | 17.0 | 0.00 | 0.01 | 0.00 | 73 | 1014.6 |
| 20260905042424 | 62 | 289 | 9.0 | 17.0 | 0.00 | 0.01 | 0.00 | 74 | 1014.6 |
| 20260905041930 | 62 | 275 | 9.0 | 15.0 | 0.00 | 0.01 | 0.00 | 74 | 1014.6 |
| 20260905041435 | 62 | 289 | 9.0 | 17.0 | 0.00 | 0.01 | 0.00 | 75 | 1014.6 |
| 20260905040923 | 62 | 259 | 9.0 | 16.0 | 0.00 | 0.01 | 0.00 | 76 | 1014.5 |
| 20260905040430 | 62 | 276 | 10.0 | 18.0 | 0.00 | 0.01 | 0.00 | 76 | 1014.5 |
| 20260905035930 | 62 | 283 | 10.0 | 18.0 | 0.00 | 0.02 | 0.00 | 76 | 1014.3 |
| 20260905035436 | 62 | 268 | 11.0 | 16.0 | 0.00 | 0.02 | 0.00 | 76 | 1014.3 |
| 20260905034922 | 62 | 289 | 9.0 | 18.0 | 0.00 | 0.02 | 0.00 | 76 | 1014.3 |
| 20260905034429 | 62 | 277 | 10.0 | 18.0 | 0.00 | 0.02 | 0.00 | 77 | 1014.3 |
| 20260905033935 | 62 | 280 | 9.0 | 17.0 | 0.00 | 0.02 | 0.00 | 78 | 1014.2 |
| 20260905033423 | 62 | 287 | 10.0 | 17.0 | 0.00 | 0.02 | 0.00 | 79 | 1014.1 |
| 20260905032949 | 62 | 301 | 10.0 | 18.0 | 0.00 | 0.02 | 0.00 | 80 | 1014.1 |
| 20260905032432 | 62 | 304 | 12.0 | 17.0 | 0.00 | 0.02 | 0.00 | 80 | 1014.1 |
| 20260905031935 | 62 | 270 | 11.0 | 18.0 | 0.00 | 0.02 | 0.00 | 80 | 1014.1 |
| 20260905031420 | 62 | 284 | 11.0 | 20.0 | 0.00 | 0.02 | 0.00 | 80 | 1014.1 |
| 20260905030959 | 62 | 287 | 11.0 | 21.0 | 0.00 | 0.02 | 0.00 | 80 | 1014.0 |
| 20260905030449 | 62 | 268 | 12.0 | 20.0 | 0.00 | 0.02 | 0.00 | 80 | 1014.1 |
| 20260905025937 | 62 | 251 | 12.0 | 20.0 | 0.00 | 0.02 | 0.00 | 80 | 1014.1 |
| 20260905025441 | 62 | 251 | 13.0 | 20.0 | 0.00 | 0.02 | 0.00 | 80 | 1014.0 |
| 20260905024927 | 62 | 258 | 13.0 | 20.0 | 0.00 | 0.02 | 0.00 | 80 | 1013.9 |
| 20260905024434 | 62 | 282 | 12.0 | 20.0 | 0.00 | 0.02 | 0.00 | 79 | 1013.9 |
| 20260905023921 | 62 | 290 | 11.0 | 22.0 | 0.00 | 0.02 | 0.00 | 79 | 1014.0 |
| 20260905023447 | 62 | 268 | 14.0 | 21.0 | 0.00 | 0.02 | 0.00 | 78 | 1013.9 |
| 20260905022931 | 62 | 283 | 14.0 | 19.0 | 0.00 | 0.02 | 0.00 | 78 | 1013.8 |
| 20260905022418 | 63 | 282 | 11.0 | 22.0 | 0.00 | 0.02 | 0.00 | 78 | 1013.9 |
| 20260905021940 | 63 | 287 | 12.0 | 22.0 | 0.00 | 0.02 | 0.00 | 78 | 1013.9 |
| 20260905021454 | 63 | 261 | 15.0 | 24.0 | 0.00 | 0.02 | 0.00 | 78 | 1013.8 |
| 20260905020951 | 63 | 301 | 13.0 | 24.0 | 0.00 | 0.02 | 0.00 | 77 | 1013.9 |
| 20260905020435 | 63 | 283 | 13.0 | 24.0 | 0.00 | 0.02 | 0.00 | 77 | 1013.9 |
| 20260905015920 | 63 | 268 | 15.0 | 23.0 | 0.00 | 0.02 | 0.00 | 76 | 1014.0 |
| 20260905015427 | 64 | 280 | 13.0 | 22.0 | 0.00 | 0.02 | 0.00 | 75 | 1013.9 |
| 20260905014929 | 64 | 270 | 15.0 | 22.0 | 0.00 | 0.02 | 0.00 | 74 | 1013.9 |
| 20260905014417 | 64 | 296 | 15.0 | 22.0 | 0.00 | 0.02 | 0.00 | 74 | 1014.0 |
| 20260905013923 | 64 | 284 | 13.0 | 22.0 | 0.00 | 0.02 | 0.00 | 74 | 1014.0 |
| 20260905013430 | 64 | 276 | 13.0 | 21.0 | 0.00 | 0.02 | 0.00 | 74 | 1014.0 |
| 20260905012916 | 64 | 264 | 14.0 | 21.0 | 0.00 | 0.02 | 0.00 | 74 | 1014.0 |
| 20260905012424 | 64 | 275 | 14.0 | 22.0 | 0.00 | 0.02 | 0.00 | 73 | 1014.1 |
| 20260905011934 | 65 | 273 | 12.0 | 22.0 | 0.00 | 0.02 | 0.00 | 73 | 1014.0 |
| 20260905011420 | 65 | 301 | 12.0 | 21.0 | 0.00 | 0.02 | 0.00 | 72 | 1014.0 |
| 20260905010944 | 65 | 263 | 11.0 | 18.0 | 0.00 | 0.02 | 0.00 | 72 | 1014.1 |
| 20260905010431 | 65 | 265 | 13.0 | 23.0 | 0.00 | 0.02 | 0.00 | 72 | 1014.0 |
| 20260905005935 | 65 | 256 | 13.0 | 26.0 | 0.00 | 0.02 | 0.00 | 72 | 1013.9 |
| 20260905005421 | 65 | 307 | 13.0 | 26.0 | 0.00 | 0.02 | 0.00 | 71 | 1013.9 |
| 20260905004928 | 66 | 294 | 13.0 | 24.0 | 0.00 | 0.02 | 0.00 | 71 | 1014.0 |
| 20260905004435 | 66 | 264 | 10.0 | 23.0 | 0.00 | 0.02 | 0.00 | 69 | 1014.0 |
| 20260905003921 | 65 | 263 | 16.0 | 26.0 | 0.00 | 0.02 | 0.00 | 69 | 1013.9 |
| 20260905003423 | 66 | 294 | 17.0 | 26.0 | 0.00 | 0.02 | 0.00 | 70 | 1013.9 |
| 20260905002929 | 66 | 313 | 12.0 | 24.0 | 0.00 | 0.02 | 0.00 | 70 | 1013.9 |
| 20260905002436 | 66 | 277 | 15.0 | 25.0 | 0.00 | 0.02 | 0.00 | 70 | 1013.8 |
| 20260905001940 | 66 | 307 | 14.0 | 23.0 | 0.00 | 0.02 | 0.00 | 70 | 1013.9 |
| 20260905001425 | 66 | 292 | 12.0 | 23.0 | 0.00 | 0.02 | 0.00 | 71 | 1013.9 |
| 20260905000930 | 66 | 288 | 13.0 | 22.0 | 0.00 | 0.02 | 0.00 | 71 | 1013.9 |
| 20260905000435 | 66 | 257 | 13.0 | 22.0 | 0.00 | 0.02 | 0.00 | 70 | 1014.0 |
| 20260904235923 | 66 | 264 | 12.0 | 23.0 | 0.00 | 0.02 | 0.00 | 69 | 1014.1 |
| 20260904235430 | 66 | 262 | 15.0 | 23.0 | 0.00 | 0.02 | 0.00 | 69 | 1014.1 |
| 20260904234937 | 66 | 289 | 13.0 | 21.0 | 0.00 | 0.02 | 0.00 | 69 | 1014.0 |
| 20260904234452 | 66 | 277 | 11.0 | 21.0 | 0.00 | 0.02 | 0.00 | 69 | 1014.1 |
| 20260904233936 | 66 | 268 | 14.0 | 22.0 | 0.00 | 0.02 | 0.00 | 69 | 1014.1 |
| 20260904233423 | 67 | 285 | 12.0 | 21.0 | 0.00 | 0.02 | 0.00 | 69 | 1014.1 |
| 20260904232927 | 67 | 258 | 13.0 | 21.0 | 0.00 | 0.02 | 0.00 | 69 | 1014.1 |
| 20260904232428 | 67 | 270 | 10.0 | 26.0 | 0.00 | 0.02 | 0.00 | 69 | 1014.2 |
| 20260904231937 | 66 | 282 | 15.0 | 26.0 | 0.00 | 0.02 | 0.00 | 69 | 1014.1 |
| 20260904231425 | 67 | 282 | 12.0 | 22.0 | 0.00 | 0.02 | 0.00 | 69 | 1014.1 |
| 20260904230931 | 67 | 285 | 11.0 | 24.0 | 0.00 | 0.02 | 0.00 | 68 | 1014.2 |
| 20260904230435 | 67 | 280 | 12.0 | 24.0 | 0.00 | 0.02 | 0.00 | 68 | 1014.2 |
| 20260904225919 | 67 | 282 | 12.0 | 23.0 | 0.00 | 0.02 | 0.00 | 69 | 1014.3 |
| 20260904225425 | 67 | 285 | 12.0 | 26.0 | 0.00 | 0.02 | 0.00 | 70 | 1014.4 |
| 20260904224932 | 66 | 292 | 16.0 | 24.0 | 0.00 | 0.02 | 0.00 | 69 | 1014.2 |
| 20260904224432 | 67 | 321 | 16.0 | 23.0 | 0.00 | 0.02 | 0.00 | 69 | 1014.2 |
| 20260904223940 | 67 | 273 | 13.0 | 22.0 | 0.00 | 0.02 | 0.00 | 69 | 1014.4 |
| 20260904223426 | 67 | 292 | 13.0 | 23.0 | 0.00 | 0.02 | 0.00 | 69 | 1014.4 |
| 20260904222933 | 66 | 277 | 15.0 | 26.0 | 0.00 | 0.02 | 0.00 | 69 | 1014.3 |
| 20260904222438 | 67 | 282 | 15.0 | 26.0 | 0.00 | 0.02 | 0.00 | 70 | 1014.5 |
| 20260904221953 | 67 | 287 | 15.0 | 25.0 | 0.00 | 0.02 | 0.00 | 70 | 1014.6 |
| 20260904221436 | 67 | 282 | 12.0 | 27.0 | 0.00 | 0.02 | 0.00 | 70 | 1014.6 |
| 20260904220932 | 67 | 270 | 19.0 | 27.0 | 0.00 | 0.02 | 0.00 | 69 | 1014.6 |
| 20260904220418 | 68 | 301 | 12.0 | 24.0 | 0.00 | 0.02 | 0.00 | 69 | 1014.5 |
| 20260904215924 | 67 | 285 | 15.0 | 24.0 | 0.00 | 0.02 | 0.00 | 68 | 1014.5 |
| 20260904215433 | 68 | 235 | 10.0 | 22.0 | 0.00 | 0.02 | 0.00 | 68 | 1014.5 |
| 20260904214918 | 68 | 226 | 12.0 | 21.0 | 0.00 | 0.02 | 0.00 | 68 | 1014.5 |
| 20260904214425 | 68 | 253 | 10.0 | 19.0 | 0.00 | 0.02 | 0.00 | 69 | 1014.6 |
| 20260904213932 | 68 | 261 | 10.0 | 19.0 | 0.00 | 0.02 | 0.00 | 69 | 1014.6 |
| 20260904213436 | 67 | 278 | 9.0 | 17.0 | 0.00 | 0.02 | 0.00 | 69 | 1014.5 |
| 20260904212920 | 67 | 301 | 8.0 | 18.0 | 0.00 | 0.02 | 0.00 | 70 | 1014.7 |
| 20260904212428 | 67 | 310 | 11.0 | 18.0 | 0.00 | 0.02 | 0.00 | 69 | 1014.6 |
| 20260904211936 | 67 | 299 | 8.0 | 16.0 | 0.00 | 0.02 | 0.00 | 70 | 1014.7 |
| 20260904211423 | 67 | 252 | 7.0 | 18.0 | 0.00 | 0.02 | 0.00 | 71 | 1014.7 |
| 20260904210930 | 66 | 209 | 9.0 | 18.0 | 0.00 | 0.02 | 0.00 | 71 | 1014.8 |
| 20260904210418 | 67 | 220 | 9.0 | 16.0 | 0.00 | 0.02 | 0.00 | 71 | 1014.8 |
| 20260904205923 | 67 | 235 | 9.0 | 19.0 | 0.00 | 0.02 | 0.00 | 71 | 1014.8 |
| 20260904205424 | 66 | 258 | 8.0 | 20.0 | 0.00 | 0.02 | 0.00 | 71 | 1014.8 |
| 20260904204930 | 67 | 265 | 11.0 | 20.0 | 0.00 | 0.02 | 0.00 | 71 | 1014.8 |
| 20260904204435 | 67 | 292 | 10.0 | 19.0 | 0.00 | 0.02 | 0.00 | 71 | 1014.8 |
| 20260904203919 | 67 | 236 | 7.0 | 20.0 | 0.00 | 0.02 | 0.00 | 71 | 1014.7 |
| 20260904203427 | 67 | 261 | 9.0 | 18.0 | 0.00 | 0.02 | 0.00 | 71 | 1014.7 |
| 20260904202929 | 67 | 274 | 10.0 | 18.0 | 0.00 | 0.02 | 0.00 | 70 | 1014.7 |
| 20260904202425 | 67 | 330 | 10.0 | 18.0 | 0.00 | 0.02 | 0.00 | 70 | 1014.6 |
| 20260904201955 | 67 | 278 | 8.0 | 15.0 | 0.00 | 0.02 | 0.00 | 71 | 1014.6 |
| 20260904201420 | 67 | 270 | 9.0 | 14.0 | 0.00 | 0.02 | 0.00 | 70 | 1014.7 |
| 20260904200925 | 67 | 310 | 7.0 | 15.0 | 0.00 | 0.02 | 0.00 | 71 | 1014.7 |
| 20260904200431 | 67 | 284 | 9.0 | 16.0 | 0.00 | 0.02 | 0.00 | 70 | 1014.6 |
| 20260904195937 | 67 | 316 | 7.0 | 16.0 | 0.00 | 0.02 | 0.00 | 71 | 1014.7 |
| 20260904195421 | 67 | 287 | 8.0 | 14.0 | 0.00 | 0.02 | 0.00 | 71 | 1014.7 |
| 20260904194928 | 67 | 248 | 8.0 | 14.0 | 0.00 | 0.02 | 0.00 | 71 | 1014.7 |
| 20260904194432 | 67 | 236 | 6.0 | 14.0 | 0.00 | 0.02 | 0.00 | 71 | 1014.6 |
| 20260904193918 | 67 | 316 | 6.0 | 15.0 | 0.00 | 0.02 | 0.00 | 70 | 1014.7 |
| 20260904193424 | 67 | 268 | 9.0 | 15.0 | 0.00 | 0.02 | 0.00 | 70 | 1014.7 |
| 20260904192930 | 67 | 229 | 5.0 | 13.0 | 0.00 | 0.02 | 0.00 | 71 | 1014.7 |
| 20260904192417 | 67 | 282 | 6.0 | 11.0 | 0.00 | 0.02 | 0.00 | 70 | 1014.7 |
| 20260904191923 | 66 | 292 | 6.0 | 13.0 | 0.00 | 0.02 | 0.00 | 71 | 1014.8 |
| 20260904191427 | 66 | 297 | 7.0 | 13.0 | 0.00 | 0.02 | 0.00 | 70 | 1014.8 |
| 20260904190931 | 66 | 244 | 5.0 | 13.0 | 0.00 | 0.02 | 0.00 | 71 | 1014.7 |
| 20260904190437 | 66 | 258 | 6.0 | 14.0 | 0.00 | 0.02 | 0.00 | 71 | 1014.8 |
| 20260904185935 | 66 | 290 | 7.0 | 14.0 | 0.00 | 0.02 | 0.00 | 71 | 1014.8 |
| 20260904185421 | 66 | 256 | 6.0 | 15.0 | 0.00 | 0.02 | 0.00 | 72 | 1014.9 |
| 20260904184928 | 65 | 270 | 6.0 | 13.0 | 0.00 | 0.02 | 0.00 | 71 | 1014.7 |
| 20260904184433 | 65 | 261 | 7.0 | 13.0 | 0.00 | 0.02 | 0.00 | 71 | 1014.7 |
| 20260904183918 | 65 | 275 | 7.0 | 13.0 | 0.00 | 0.02 | 0.00 | 71 | 1014.6 |
| 20260904183424 | 65 | 244 | 8.0 | 13.0 | 0.00 | 0.02 | 0.00 | 71 | 1014.6 |
| 20260904182924 | 65 | 283 | 5.0 | 16.0 | 0.00 | 0.02 | 0.00 | 72 | 1014.7 |
| 20260904182432 | 65 | 278 | 9.0 | 16.0 | 0.00 | 0.02 | 0.00 | 71 | 1014.6 |
| 20260904181918 | 65 | 278 | 7.0 | 14.0 | 0.00 | 0.02 | 0.00 | 72 | 1014.7 |
| 20260904181424 | 64 | 284 | 10.0 | 14.0 | 0.00 | 0.02 | 0.00 | 72 | 1014.7 |
| 20260904180928 | 65 | 295 | 7.0 | 13.0 | 0.00 | 0.02 | 0.00 | 73 | 1014.7 |
| 20260904180435 | 64 | 254 | 7.0 | 13.0 | 0.00 | 0.02 | 0.00 | 73 | 1014.6 |
| 20260904175919 | 64 | 275 | 6.0 | 12.0 | 0.00 | 0.02 | 0.00 | 74 | 1014.6 |
| 20260904175421 | 63 | 268 | 8.0 | 13.0 | 0.00 | 0.02 | 0.00 | 75 | 1014.5 |
| 20260904174956 | 63 | 252 | 8.0 | 14.0 | 0.00 | 0.02 | 0.00 | 76 | 1014.6 |
| 20260904174417 | 63 | 233 | 8.0 | 14.0 | 0.00 | 0.02 | 0.00 | 76 | 1014.6 |
| 20260904173921 | 63 | 271 | 8.0 | 14.0 | 0.00 | 0.02 | 0.00 | 77 | 1014.7 |
| 20260904173456 | 62 | 261 | 6.0 | 14.0 | 0.00 | 0.02 | 0.00 | 77 | 1014.7 |
| 20260904172920 | 62 | 263 | 6.0 | 14.0 | 0.00 | 0.02 | 0.00 | 79 | 1014.7 |
| 20260904172426 | 62 | 298 | 6.0 | 14.0 | 0.00 | 0.02 | 0.00 | 80 | 1014.7 |
| 20260904171928 | 61 | 289 | 8.0 | 14.0 | 0.00 | 0.02 | 0.00 | 80 | 1014.7 |
| 20260904171434 | 61 | 333 | 8.0 | 14.0 | 0.00 | 0.02 | 0.00 | 81 | 1014.7 |
| 20260904170921 | 61 | 280 | 8.0 | 13.0 | 0.00 | 0.02 | 0.00 | 81 | 1014.6 |
| 20260904170427 | 61 | 273 | 8.0 | 13.0 | 0.00 | 0.02 | 0.00 | 82 | 1014.6 |
| 20260904165931 | 61 | 287 | 7.0 | 12.0 | 0.00 | 0.02 | 0.00 | 82 | 1014.6 |
| 20260904165417 | 61 | 275 | 7.0 | 13.0 | 0.00 | 0.02 | 0.00 | 82 | 1014.6 |
| 20260904164924 | 61 | 295 | 4.0 | 11.0 | 0.00 | 0.02 | 0.00 | 83 | 1014.7 |
| 20260904164426 | 60 | 295 | 5.0 | 12.0 | 0.00 | 0.02 | 0.00 | 83 | 1014.6 |
| 20260904163931 | 60 | 264 | 7.0 | 15.0 | 0.00 | 0.02 | 0.00 | 83 | 1014.5 |
| 20260904163436 | 60 | 271 | 10.0 | 15.0 | 0.00 | 0.02 | 0.00 | 81 | 1014.4 |
| 20260904162920 | 61 | 305 | 7.0 | 14.0 | 0.00 | 0.02 | 0.00 | 81 | 1014.4 |
| 20260904162425 | 61 | 306 | 7.0 | 14.0 | 0.00 | 0.02 | 0.00 | 81 | 1014.3 |
| 20260904161930 | 61 | 265 | 7.0 | 13.0 | 0.00 | 0.02 | 0.00 | 80 | 1014.2 |
| 20260904161432 | 61 | 296 | 6.0 | 12.0 | 0.00 | 0.02 | 0.00 | 80 | 1014.2 |
| 20260904160916 | 61 | 273 | 7.0 | 12.0 | 0.00 | 0.02 | 0.00 | 80 | 1014.1 |
| 20260904160438 | 61 | 287 | 6.0 | 11.0 | 0.00 | 0.02 | 0.00 | 80 | 1014.2 |
| 20260904155920 | 61 | 318 | 6.0 | 11.0 | 0.00 | 0.02 | 0.00 | 80 | 1014.2 |
| 20260904155420 | 61 | 284 | 5.0 | 12.0 | 0.00 | 0.02 | 0.00 | 80 | 1014.1 |
| 20260904154923 | 61 | 294 | 8.0 | 12.0 | 0.00 | 0.02 | 0.00 | 80 | 1014.1 |
| 20260904154425 | 61 | 289 | 8.0 | 12.0 | 0.00 | 0.02 | 0.00 | 80 | 1014.1 |
| 20260904153925 | 61 | 296 | 5.0 | 10.0 | 0.00 | 0.02 | 0.00 | 81 | 1014.0 |
| 20260904153423 | 61 | 350 | 4.0 | 10.0 | 0.00 | 0.02 | 0.00 | 81 | 1014.0 |
| 20260904152955 | 61 | 306 | 7.0 | 10.0 | 0.00 | 0.02 | 0.00 | 82 | 1013.9 |
| 20260904152418 | 60 | 263 | 5.0 | 9.0 | 0.00 | 0.02 | 0.00 | 83 | 1014.0 |
| 20260904151923 | 60 | 304 | 5.0 | 9.0 | 0.00 | 0.02 | 0.00 | 83 | 1013.9 |
| 20260904151446 | 60 | 285 | 4.0 | 9.0 | 0.00 | 0.02 | 0.00 | 83 | 1013.9 |
| 20260904150928 | 60 | 226 | 5.0 | 9.0 | 0.00 | 0.02 | 0.00 | 83 | 1014.0 |
| 20260904150429 | 60 | 282 | 4.0 | 9.0 | 0.00 | 0.02 | 0.00 | 83 | 1013.8 |
| 20260904145934 | 59 | 289 | 6.0 | 9.0 | 0.00 | 0.02 | 0.00 | 83 | 1013.8 |
| 20260904145417 | 59 | 275 | 4.0 | 9.0 | 0.00 | 0.02 | 0.00 | 84 | 1013.7 |
| 20260904144922 | 59 | 277 | 5.0 | 9.0 | 0.00 | 0.02 | 0.00 | 84 | 1013.6 |
| 20260904144426 | 59 | 280 | 6.0 | 9.0 | 0.00 | 0.02 | 0.00 | 84 | 1013.5 |
| 20260904143931 | 59 | 235 | 4.0 | 9.0 | 0.00 | 0.02 | 0.00 | 84 | 1013.5 |
| 20260904143417 | 59 | 228 | 5.0 | 9.0 | 0.00 | 0.02 | 0.00 | 84 | 1013.4 |
| 20260904142923 | 59 | 282 | 4.0 | 8.0 | 0.00 | 0.02 | 0.00 | 84 | 1013.3 |
| 20260904142443 | 58 | 237 | 4.0 | 7.0 | 0.00 | 0.02 | 0.00 | 84 | 1013.2 |
| 20260904141926 | 58 | 261 | 5.0 | 7.0 | 0.00 | 0.02 | 0.00 | 84 | 1013.2 |
| 20260904141431 | 58 | 226 | 4.0 | 8.0 | 0.00 | 0.02 | 0.00 | 84 | 1013.1 |
| 20260904140936 | 58 | 207 | 5.0 | 8.0 | 0.00 | 0.02 | 0.00 | 84 | 1013.1 |
| 20260904140441 | 58 | 313 | 4.0 | 7.0 | 0.00 | 0.02 | 0.00 | 84 | 1013.0 |
| 20260904135924 | 58 | 258 | 4.0 | 7.0 | 0.00 | 0.02 | 0.00 | 84 | 1013.0 |
| 20260904135426 | 58 | 240 | 5.0 | 7.0 | 0.00 | 0.02 | 0.00 | 84 | 1012.9 |
| 20260904134929 | 58 | 273 | 4.0 | 6.0 | 0.00 | 0.02 | 0.00 | 84 | 1012.9 |
| 20260904134435 | 58 | 280 | 4.0 | 6.0 | 0.00 | 0.02 | 0.00 | 84 | 1012.9 |
| 20260904133951 | 58 | 261 | 2.0 | 6.0 | 0.00 | 0.02 | 0.00 | 84 | 1012.9 |
| 20260904133417 | 58 | 286 | 4.0 | 7.0 | 0.00 | 0.02 | 0.00 | 85 | 1012.9 |
| 20260904132921 | 58 | 275 | 4.0 | 7.0 | 0.00 | 0.02 | 0.00 | 85 | 1012.9 |
| 20260904132427 | 59 | 271 | 4.0 | 9.0 | 0.00 | 0.02 | 0.00 | 85 | 1012.7 |
| 20260904131929 | 59 | 247 | 5.0 | 9.0 | 0.00 | 0.02 | 0.00 | 85 | 1012.7 |
| 20260904131437 | 59 | 276 | 6.0 | 9.0 | 0.00 | 0.02 | 0.00 | 85 | 1012.8 |
| 20260904130954 | 59 | 290 | 6.0 | 9.0 | 0.00 | 0.02 | 0.00 | 85 | 1012.7 |
| 20260904130421 | 59 | 285 | 5.0 | 9.0 | 0.00 | 0.02 | 0.00 | 85 | 1012.7 |
| 20260904125946 | 59 | 284 | 6.0 | 9.0 | 0.00 | 0.02 | 0.00 | 85 | 1012.7 |
| 20260904125431 | 59 | 256 | 3.0 | 11.0 | 0.00 | 0.02 | 0.00 | 85 | 1012.7 |
| 20260904124932 | 59 | 298 | 6.0 | 11.0 | 0.00 | 0.02 | 0.00 | 84 | 1012.7 |
| 20260904124420 | 59 | 284 | 6.0 | 9.0 | 0.00 | 0.02 | 0.00 | 84 | 1012.7 |
| 20260904123927 | 59 | 263 | 5.0 | 7.0 | 0.00 | 0.02 | 0.00 | 84 | 1012.6 |
| 20260904123435 | 59 | 271 | 4.0 | 8.0 | 0.00 | 0.02 | 0.00 | 84 | 1012.7 |
| 20260904122924 | 59 | 244 | 4.0 | 8.0 | 0.00 | 0.02 | 0.00 | 84 | 1012.7 |
| 20260904122430 | 59 | 268 | 5.0 | 9.0 | 0.00 | 0.02 | 0.00 | 84 | 1012.7 |
| 20260904121939 | 59 | 273 | 5.0 | 9.0 | 0.00 | 0.02 | 0.00 | 84 | 1012.7 |
| 20260904121426 | 59 | 268 | 4.0 | 9.0 | 0.00 | 0.02 | 0.00 | 85 | 1012.7 |
| 20260904120929 | 59 | 215 | 4.0 | 9.0 | 0.00 | 0.02 | 0.00 | 85 | 1012.7 |
| 20260904120436 | 59 | 270 | 6.0 | 8.0 | 0.00 | 0.02 | 0.00 | 85 | 1012.7 |
| 20260904115940 | 59 | 275 | 4.0 | 8.0 | 0.00 | 0.02 | 0.00 | 85 | 1012.7 |
| 20260904115425 | 59 | 252 | 5.0 | 9.0 | 0.00 | 0.02 | 0.00 | 85 | 1012.6 |
| 20260904114931 | 59 | 282 | 7.0 | 9.0 | 0.00 | 0.02 | 0.00 | 85 | 1012.6 |
| 20260904114417 | 59 | 268 | 5.0 | 7.0 | 0.00 | 0.02 | 0.00 | 85 | 1012.6 |
| 20260904113925 | 59 | 273 | 5.0 | 6.0 | 0.00 | 0.02 | 0.00 | 85 | 1012.6 |
| 20260904113456 | 59 | 261 | 5.0 | 7.0 | 0.00 | 0.02 | 0.00 | 86 | 1012.6 |